ROMMA est une association bénévole à but non lucratif. Votre soutien est indispensable : ADHERER à ROMMA ou FAIRE un DON

Chambon - (38, Isère)

Oisans (2460 m)   Longitude: 06° 10' 42" E   Latitude: 45° 01' 32" N Station partenaire n°803
 

Détail journalier du     <<     >>

Température Humidité Vent Dir Rafale Dir. rafale Neige 1 Neige 2
Heure (°C) (%) (km/h) (km/h) (cm) (cm)
01:00 -3.16228NE47NE164214
02:00 -1.74630ENE46ENE164214
03:00 -1.02929NE48NE164214
04:00 -1.42620NE42NE164214
05:00 -1.41917NE29ENE164214
06:00 -2.22512NNE28ENE164214
07:00 -1.42810NNE26NE164214
08:00 -1.3456NNE13NNE164213
09:00 -1.0505SE9SO164213
10:00 1.1439SO14SO164213
11:00 1.14113SO17SO164213
12:00 2.33414SSO29SSO164213
13:00 2.53212SSO27SSO164213
14:00 3.03215SSO26SSO164213
15:00 2.52715SSO29SSO164213
16:00 2.53114SSO26SSO164213
17:00 2.23519SO47SO164213
18:00 1.33019SSO42SSO164213
19:00 1.42623SSO42SSO164214
20:00 1.12423SSO45SSO164215
21:00 0.92123SSO46SSO164215
22:00 1.02128SSO52SSO164215
23:00 0.92232SSO57SSO163215
minuit 1.12238SSO68SO163214

Graphique du 03-03-2019

 

Serveur OMMA